Simultaneous Nadir Overpasses (SNOs) Predictions

Prediction of SNOs between LANDSAT-8 and NOAA-19 Satellite Orbit:

Table of predicted SNOs for the next 14.0 days since TLE Epoch: 5/30/2014
Index Date (LANDSAT-8) Time (LANDSAT-8) Lat,Lon (LANDSAT-8) SZA (LANDSAT-8 ) Date (NOAA-19) Time (NOAA-19) Lat,Lon (NOAA-19) SZA (NOAA-19 ) Distance(km) Time Diff (sec)
1 05/30/2014 19:18:58 -72.23, 69.88 129.71 05/30/2014 19:17:46 -72.28, 68.89 129.66 33.85 72
2 05/30/2014 20:08:30 71.88,-123.10 49.93 05/30/2014 20:08:47 71.90,-123.14 49.96 2.63 17
3 06/02/2014 00:52:48 71.94, 165.92 49.69 06/02/2014 00:52:39 71.91, 165.89 49.66 3.30 9
4 06/02/2014 01:42:18 -71.82, -26.65 130.44 06/02/2014 01:43:32 -71.80, -26.63 130.45 2.20 74
5 06/04/2014 05:37:07 71.94, 94.85 49.42 06/04/2014 05:36:31 71.93, 94.92 49.41 2.64 36
6 06/04/2014 06:26:36 -71.88, -97.62 130.65 06/04/2014 06:27:25 -71.87, -97.69 130.66 2.72 49
7 06/06/2014 10:21:25 71.99, 23.86 49.23 06/06/2014 10:20:24 72.01, 23.82 49.25 2.18 61
8 06/06/2014 11:10:55 -71.88,-168.70 130.89 06/06/2014 11:11:17 -71.89,-168.67 130.88 1.35 22
9 06/08/2014 15:05:35 72.47, -46.36 49.50 06/08/2014 15:04:26 72.55, -48.21 49.59 62.52 69
10 06/08/2014 15:55:13 -71.93, 120.31 131.05 06/08/2014 15:55:09 -71.91, 120.34 131.06 2.26 4
11 06/08/2014 16:44:55 71.02, -73.55 48.05 06/08/2014 16:46:00 71.04, -70.84 48.06 98.07 65
12 06/10/2014 20:39:31 -71.97, 49.31 131.18 06/10/2014 20:39:02 -71.99, 49.25 131.16 2.87 29
13 06/10/2014 21:28:58 71.87,-
